www.pogodaiklimat.ru

Погода и климат >> Архив погоды >> Иран >> Феса


ПОГОДА в Фесе

  • Прогноз погоды в Фесе
  • Монитор погоды в Фесе

АРХИВ ПОГОДЫ в Фесе

Время (UTC), дата Ветер
(напр.,м/с)
 
Видим.   Явления Облачность Т
(С)
Тd
(С)
f
(%)
Тe
(С)
Тes
(С)
Комфортность P
(гПа)
Po
(гПа)
Тmin
(С)
Tmax
(С)
R
(мм)
R24
(мм)
S
(см)
03 13.07 С 2 8000 м мгла 6/3 1200 м
[Sc diur, vesp Ac trans Ci fib]
+26.6 +11.9 40 +28 +29 жарко 989.9 861.5 +26.0 666
06 13.07 штиль 0 7000 м мгла 5/3 1200 м
[Cu hum Ci fib]
+35.2 +12.2 25 +35 +49 очень
жарко
989.7 862.2
09 13.07 Ю 3 7000 м мгла 4/1 1200 м
[Cu med, cong Ci fib]
+39.0 +7.4 15 +37 +52 опасность
солнечного
удара
988.3 861.0
12 13.07 СЗ 5 10 км 5/5 1050 м
[Cb calv Ci fib]
+40.8 +7.5 13 +38 +41 очень
жарко
987.2 859.8
15 13.07 ЮЗ 3 10 км 9/6 1050 м
[Cb calv Ac As]
+37.4 +4.6 13 +34 +34 очень
жарко
988.3 859.8 +41.2
18 13.07 ЮВ 2 7000 м мгла 6/3 1200 м
[Sc diur, vesp Ac trans]
+32.8 +11.2 27 +33 +33 жарко 989.9 862.2
21 13.07 З 3 7000 м мгла 8/3 1200 м
[Sc diur, vesp Ac trans]
+29.2 +11.7 34 +30 +30 жарко 989.4 861.8
00 14.07 штиль 0 8000 м мгла 9/4 1200 м
[Sc diur, vesp Ac und]
+28.2 +11.6 36 +29 +29 жарко 988.8 861.4
03 14.07 С 2 10 км 3/1 1200 м
[Sc Ac trans]
+26.6 +12.3 41 +28 +30 жарко 990.4 861.9 +25.6
06 14.07 штиль 0 10 км ясно +34.6 +12.2 26 +35 +55 опасность
солнечного
удара
990.6 862.7
09 14.07 Ю 3 10 км ясно +38.8 +6.4 14 +36 +54 опасность
солнечного
удара
989.4 861.6 666
12 14.07 ЮЗ 5 10 км 3/3 1200 м
[Sc]
+40.4 +7.9 14 +38 +42 очень
жарко
986.6 859.3
15 14.07 Ю 3 10 км 9/8 1200 м
[Sc Ac trans]
+37.4 +7.2 16 +35 +35 очень
жарко
988.8 860.3 +40.6
18 14.07 ЮВ 6 10 км 9/8 1050 м
[Cb calv Ac cuf]
+33.2 +10.4 25 +33 +33 жарко 990.0 862.2
21 14.07 С 2 10 км 6/3 1200 м
[Sc diur, vesp Ac trans]
+30.8 +10.9 29 +31 +31 жарко 988.4 861.2
00 15.07 штиль 0 10 км 6/0
[Ac und]
+28.2 +11.6 36 +29 +29 жарко 987.3 860.0
03 15.07 штиль 0 10 км 3/1 1200 м
[Sc Ac trans]
+26.0 +11.1 39 +27 +29 жарко 989.4 860.8 +25.6
06 15.07 штиль 0 10 км ясно +35.2 +11.7 24 +35 +56 опасность
солнечного
удара
988.2 860.8
09 15.07 штиль 0 10 км 3/3 1200 м
[Cu med, cong Ci fib]
+39.8 +7.9 15 +38 +58 опасность
солнечного
удара
986.2 859.3 666
12 15.07 З 7 7000 м пыльный позёмок 9/9 1050 м
[Cb calv]
+38.2 +5.1 13 +35 +36 очень
жарко
986.2 858.4
15 15.07 ЮЗ 3 10 км 6/5 1050 м
[Cb calv Ac cuf]
+36.6 +8.0 17 +35 +35 очень
жарко
986.9 858.4 +41.6 666
18 15.07 ЮЗ 2 10 км 4/4 1200 м
[Sc diur, vesp]
+32.8 +5.9 19 +31 +31 жарко 986.9 859.3
21 15.07 С 3 10 км 1/1 1200 м
[Sc diur, vesp]
+26.8 +4.8 24 +26 +26 жарко 987.3 859.5
00 16.07 штиль 0 10 км ясно +23.6 +7.6 36 +24 +24 комфорт 987.3 858.5
03 16.07 штиль 0 10 км ясно +24.4 +8.3 36 +25 +28 комфорт 989.5 860.3 +21.6 666
06 16.07 штиль 0 10 км ясно +35.8 +8.1 18 +34 +55 опасность
солнечного
удара
988.0 860.5
09 16.07 Ю 2 10 км 1/1 1200 м
[Cu hum]
+40.0 +5.1 12 +37 +56 опасность
солнечного
удара
986.8 859.0
12 16.07 З 4 10 км 5/5 1050 м
[Cb calv]
+41.0 +1.7 9 +37 +41 очень
жарко
985.9 857.7
15 16.07 ЮЗ 3 10 км 6/5 1050 м
[Sc diur, vesp Ac trans Ci fib]
+38.6 +5.4 13 +36 +36 очень
жарко
985.7 857.3 +42.4
18 16.07 В 2 10 км 3/3 1200 м
[Sc diur, vesp]
+34.0 +7.1 19 +32 +32 жарко 985.8 858.8
21 16.07 СВ 2 10 км ясно +29.0 +13.1 38 +31 +31 жарко 987.0 859.9
00 17.07 штиль 0 10 км ясно +25.6 +12.2 43 +27 +27 жарко 987.8 860.1
03 17.07 СЗ 2 10 км ясно +24.8 +6.9 32 +25 +27 комфорт 990.1 861.2 +23.2
06 17.07 ЮВ 2 8000 м мгла ясно +33.6 +14.2 31 +35 +50 душно 989.5 861.9
09 17.07 ЮВ 3 7000 м мгла 1/1 1200 м
[Cu hum]
+37.8 +11.2 20 +37 +53 опасность
солнечного
удара
988.4 860.6
12 17.07 СЗ 5 10 км 3/3 1200 м
[Cu med, cong]
+39.2 +7.3 14 +37 +40 очень
жарко
987.1 859.0
15 17.07 ЮВ 9 7000 м пыльный позёмок 6/5 1050 м
[Cb calv Ac cuf]
+35.2 +10.8 23 +35 +35 очень
жарко
988.9 859.7 +40.0 666
18 17.07 ЮВ 2 7000 м мгла 6/3 1200 м
[Sc diur, vesp Ac trans Ci sp]
+31.4 +14.0 35 +33 +33 жарко 989.1 861.0
21 17.07 штиль 0 6000 м мгла 10/5 1200 м
[Sc diur, vesp Ac As]
+30.2 +13.6 36 +32 +32 жарко 988.3 860.9
00 18.07 штиль 0 8000 м мгла 10/5 1200 м
[Sc As op]
+28.2 +12.9 39 +30 +30 жарко 988.2 860.7
03 18.07 штиль 0 8000 м мгла 9/5 1200 м
[Sc Ac As]
+28.0 +13.0 40 +30 +30 жарко 990.1 861.5 +27.2 666
06 18.07 штиль 0 6000 м мгла 3/3 1200 м
[Sc]
+36.4 +12.7 24 +36 +51 опасность
солнечного
удара
990.3 862.6
09 18.07 ЮЗ 4 7000 м мгла ясно +38.8 +8.8 16 +37 +51 опасность
солнечного
удара
988.7 861.3 666
12 18.07 З 3 7000 м мгла 5/5 1200 м
[Sc]
+38.6 +8.4 16 +37 +41 очень
жарко
987.4 859.7
15 18.07 ЮВ 5 7000 м мгла 8/8 1050 м
[Cb calv]
+34.2 +10.1 23 +33 +33 жарко 989.3 860.5 +39.6
18 18.07 СВ 3 7000 м мгла 6/4 1200 м
[Sc Ci fib]
+29.4 +13.3 37 +31 +31 жарко 989.9 861.8
21 18.07 Ю 3 8000 м мгла 5/0
[Ci fib]
+25.2 +9.9 38 +26 +26 жарко 990.2 861.6
00 19.07 штиль 0 8000 м мгла 4/0
[Ci fib]
+25.0 +11.0 41 +26 +26 жарко 990.0 861.4
03 19.07 штиль 0 8000 м мгла 1/0
[Ci fib]
+23.4 +11.8 48 +26 +28 жарко 992.3 862.2 +22.4
06 19.07 С 2 6000 м мгла ясно +34.4 +12.8 27 +35 +50 очень
жарко
991.0 862.4
09 19.07 З 4 7000 м мгла 4/4 1050 м
[Cu med, cong]
+39.6 +6.8 14 +37 +46 очень
жарко
989.6 861.1
12 19.07 ЮВ 8 8000 м пыльный позёмок 9/9 900 м
[Cb calv]
+39.4 +2.9 11 +36 +36 очень
жарко
988.7 860.2
15 19.07 З 3 8000 м мгла 6/4 1200 м
[Sc diur, vesp Ac trans]
+35.8 +8.7 19 +34 +34 очень
жарко
990.1 860.5 +40.0
18 19.07 З 2 8000 м мгла 5/5 1200 м
[Sc diur, vesp]
+30.8 +8.9 26 +30 +30 жарко 991.0 862.5
21 19.07 З 2 8000 м мгла 3/3 1200 м
[Sc diur, vesp]
+27.4 +9.4 32 +28 +28 жарко 992.4 863.1
00 20.07 СЗ 2 8000 м мгла ясно +23.6 +9.5 41 +25 +25 комфорт 992.2 863.1

 

Местоположение метеостанции Феса (Иран): широта 28.97 долгота 53.68 высота над уровнем моря 1288 м.

В архиве по умолчанию представлена погода в Фесе за последнюю неделю. Архивные данные за месяц целиком и за предыдущие месяцы, начиная с января 2011 года, Вы можете получить, выбрав интересующий диапазон дат из раскрывающегося списка и нажав кнопку "Ввод!".


*Определитесь, кто Вы:
робот инопланетянин человек

Внимание! Время в таблицах - всемирное. Для получения местного времени необходимо прибавить поправку, которая равна 3.5 ч.

Смотрите также архив погоды в соседних городах и на ближайших метеорологических станциях:

Погода в Ширазе (Иран) (128 км)
Погода в Сирджане (Иран) (206 км)
Погода в Бендер-Дейере (Иран) (213 км)
Погода в Абаде (Иран) (264 км)
Погода в Бушире (Иран) (275 км)
Погода на Острове Киш (Иран) (276 км)
Погода в Ясудже (Иран) (277 км)
Погода в Бушир аэропорту (Иран) (277 км)
Погода в Бафте (Иран) (282 км)
Погода в Бендер-Ленге (Иран) (289 км)

Пояснения к столбцам:

Ветер - указаны скорость ветра в м/с - средняя за 10 мин, порывы в срок и между сроками (в фигурных скобках) и направление, откуда дует ветер: С - северный, СВ - северо-восточный, В - восточный, ЮВ - юго-восточный, Ю - южный, ЮЗ - юго-западный, З - западный, СЗ - северо-западный.
Видимость - горизонтальная дальность видимости в метрах или километрах. При видимости от 1 до 10 км при отсутствии осадков обычно наблюдается дымка, при ухудшении видимости до 1 км и менее - туман. В сухую погоду видимость может ухудшаться дымом, пылью или мглою.
Явления - указаны атмосферные явления, наблюдавшиеся в срок или в последний час перед сроком; фигурными скобками обозначены явления, наблюдавшиеся между сроками (за 1-3 часа до срока); квадратными скобками обозначены град или гололедные отложения с указанием их диаметра в мм.
Облачность - указаны через наклонную черту общая и нижняя облачность в баллах и высота нижней границы облаков в метрах; квадратными скобками обозначены формы облаков: Ci - перистые, Cs - перисто-слоистые, Cc - перисто-кучевые, Ac - высококучевые, As - высокослоистые, Sc - слоисто-кучевые, Ns - слоисто-дождевые, Cu - кучевые, Cb - кучево-дождевые. Подробнее классификацию облаков см. в Атласе облаков (PDF).
T - Температура воздуха - температура, измеренная на высоте 2 м над землей.
Td - Температура точки росы - температура, при понижении до которой содержащийся в воздухе водяной пар достигнет насыщения.
f - Относительная влажность воздуха - влажноcть воздуха, измеренная на высоте 2 м над землей.
Te - Эффективная температура - температура, которую ощущает одетый по сезону человек в тени. Характеристика душности погоды. При расчете учитывается влияние влажности воздуха и скорости ветра на теплоощущения человека.
Tes - Эффективная температура на солнце - температура, которую ощущает человек, с поправкой на солнечный нагрев. Характеристика знойности погоды. Зависит от высоты солнца над горизонтом, облачности и скорости ветра. Ночью, в пасмурную погоду, а также при ветре 12 м/с и более поправка равна нулю.
P - Атмосферное давление - приведенное к уровню моря атмосферное давление.
Po - Атмосферное давление - измеренное на уровне метеостанции атмосферное давление.
Tmin - Минимальная температура - минимум температуры воздуха на высоте 2 м над землей.
Tmax - Максимальная температура - максимум температуры воздуха на высоте 2 м над землей.
R - Количество осадков - Количество выпавших осадков за период времени, мм. При наведении курсора мыши на число - период времени, за который выпало указанное количество осадков.
R24 - Количество осадков - Количество выпавших осадков за 24 часа, мм.
S - Снежный покров - Высота снежного покрова, см. При наведении курсора мыши на число - состояние снежного покрова и степень покрытия местности в баллах.